Location: Newark
(22.3145°N, 88.6625°E)
Time: 19:23:12
(UTC+00:00)

ISS - Visible Passes

Search period start: 19 October 2019 00:00
Search period end: 29 October 2019 00:00
Orbit: 411 x 421 km, 51.6° (Epoch: 19 October)

Date Brightness Start Highest point End Pass type
(mag) Time Alt. Az. Time Alt. Az. Time Alt. Az.
20 Oct -1.7 23:19:06 10° S 23:22:05 30° SE 23:25:04 10° ENE visible
21 Oct -0.7 22:31:44 10° SSE 22:33:37 14° SE 22:35:30 10° E visible
22 Oct -3.7 23:18:12 10° SW 23:21:30 55° NW 23:24:48 10° NNE visible
23 Oct -3.4 22:33:01 61° ESE 22:33:01 61° ESE 22:36:16 10° NE visible
24 Oct -1.9 23:20:34 15° NW 23:21:06 15° NW 23:23:07 10° N visible
25 Oct -1.2 22:34:52 13° N 22:34:52 13° N 22:35:21 10° NNE visible
